Location: NJAA Observatory
(40.6819°N, 74.8979°W)
Time: 13:31:17
(UTC-04:00)

Iridium 84 - Visible Passes

Search period start: 29 April 2017 00:00
Search period end: 09 May 2017 00:00
Orbit: 776 x 779 km, 86.4° (Epoch: 27 April)

Date Brightness Start Highest point End Pass type
(mag) Time Alt. Az. Time Alt. Az. Time Alt. Az.
29 Apr 5.9 22:20:42 10° N 22:25:34 48° ENE 22:25:34 48° ENE visible
30 Apr 7.6 00:02:28 10° NW 00:06:03 19° W 00:06:03 19° W visible
30 Apr 6.6 21:47:41 10° NNE 21:52:04 26° ENE 21:52:23 26° E visible
30 Apr 6.7 23:28:07 10° NNW 23:32:48 34° W 23:32:52 34° W visible
01 May 7.3 21:15:22 10° NE 21:18:13 15° ENE 21:19:11 14° E visible
01 May 5.7 22:54:15 10° N 22:59:25 64° W 22:59:41 63° WSW visible
02 May 5.4 22:20:41 10° N 22:25:55 70° E 22:26:30 64° SE visible
03 May 7.9 00:03:37 10° NW 00:05:56 13° WNW 00:07:00 12° W visible
03 May 6.1 21:47:26 10° NNE 21:52:17 38° E 21:53:21 34° ESE visible
03 May 7.3 23:28:38 10° NNW 23:32:45 24° W 23:33:50 22° W visible
04 May 6.9 21:14:37 10° NNE 21:18:32 21° ENE 21:20:12 18° ESE visible
04 May 6.4 22:54:31 10° NNW 22:59:27 43° W 23:00:42 37° WSW visible
05 May 7.5 20:43:01 10° NE 20:44:38 11° ENE 20:46:15 10° E visible
05 May 5.5 22:20:47 10° N 22:26:01 81° W 22:27:33 47° S visible
06 May 5.7 21:47:20 10° N 21:52:28 55° E 21:54:26 35° SE visible
06 May 7.8 23:29:26 10° NW 23:32:40 17° WNW 23:34:55 13° WSW visible
07 May 6.5 21:14:13 10° NNE 21:18:47 30° E 21:21:19 20° ESE visible
07 May 7.1 22:54:56 10° NNW 22:59:26 30° W 23:01:49 21° SW visible
08 May 7.2 20:41:41 10° NE 20:44:59 17° ENE 20:48:14 10° ESE visible
08 May 6.0 22:20:59 10° NNW 22:26:05 56° W 22:28:44 27° SSW visible
